Regional Weather Roundup
Issued by NWS

Home | Current Version | Previous Version | Text Only | Print | Product List | Glossary On
Versions: 1 2 3 4 5 6 7 8 9 10 11 12 13 14 15 16 17 18 19 20 21 22 23 24 25 26 27 28 29 30 31 32 33 34 35 36 37 38 39 40 41 42 43 44 45 46 47 48 49 50
034
ASUS44 KJAN 221110
RWRMS

MISSISSIPPI HOURLY WEATHER ROUNDUP
NATIONAL WEATHER SERVICE JACKSON MS
500 AM CST MON DEC 22 2014

NOTE: "FAIR: INDICATES FEW OR NO CLOUDS BELOW 12,000 FEET WITH NO
SIGNIFICANT WEATHER AND/OR OBSTRUCTIONS TO VISIBILITY.

MSZ001>002-007>008-010>013-018>021-025>028-034>036-221200-
NORTHWEST MISSISSIPPI

CITY           SKY/WX    TMP DP  RH WIND       PRES   REMARKS
CLARKSDALE     CLOUDY    48  48 100 SE8       29.85F
CLEVELAND      CLOUDY    50  50 100 SE9       29.83F
GREENWOOD      CLOUDY    52  49  89 SE10      29.85F
GREENVILLE     CLOUDY    51  49  92 S12       29.82F FOG
GRENADA        CLOUDY    50  46  87 SE3       29.88S FOG
OLIVE BRANCH   CLOUDY    46 N/A N/A SE9       29.85F
OXFORD         CLOUDY    46  46 100 SE7       29.89S FOG
TUNICA         CLOUDY    48  46  93 S10       29.85F FOG
$$

MSZ003>006-009-014>017-022>024-029>033-037>039-221200-
NORTHEAST MISSISSIPPI

CITY           SKY/WX    TMP DP  RH WIND       PRES   REMARKS
COLUMBUS AFB   CLOUDY    51  49  93 SE8       29.91F
CORINTH        CLOUDY    50  46  87 SE5       29.89S
GOLDN TRIANGLE CLOUDY    52  48  87 SE9       29.91S
STARKVILLE     CLOUDY    50  48  93 SE7       29.91S FOG
TUPELO         CLOUDY    50  47  89 S9G16     29.89F
$$

MSZ040-058-221200-
CENTRAL MISSISSIPPI

CITY           SKY/WX    TMP DP  RH WIND       PRES   REMARKS
JACKSON INTL   CLOUDY    52  51  97 SE5       29.87F FOG
JACKSON HAWKNS CLOUDY    52  50  93 SE6       29.87F FOG
MERIDIAN KEY   CLOUDY    52  51  97 SE6       29.91F
MERIDIAN NAS   CLOUDY    51  50  96 SE6       29.92S FOG
RAYMOND        CLOUDY    52  48  87 SE8       29.86S FOG
VICKSBURG      CLOUDY    52  50  93 SE8       29.84F FOG
$$

MSZ059>079-221200-
SOUTH MISSISSIPPI

CITY           SKY/WX    TMP DP  RH WIND       PRES   REMARKS
HATTIESBURG    FOG       54  53  97 SE6       29.88F VSB 1/2
MCCOMB         FOG       53  53 100 SE7       29.85F VSB 1/4
NATCHEZ        CLOUDY    54  52  94 SE8       29.85F
PINE BELT      CLOUDY    54  50  87 CALM      29.88F VSB 1/4
$$

MSZ080>082-221200-
COASTAL MISSISSIPPI

CITY           SKY/WX    TMP DP  RH WIND       PRES   REMARKS
BILOXI         CLOUDY    58  58 100 E5        29.87F
PASCAGOULA     CLOUDY    58  56  93 E3        29.88S
GULFPORT       CLOUDY    58  56  93 E6        29.87S
$$



USA.gov is the U.S. government's official web portal to all federal, state and local government web resources and services.